Flag Weather past 2 weeks in Saint-Denis, Reunion (French)

Now
81 °F

Passing clouds.


Feels Like: 84 °F
Forecast: 74 / 84 °F
Wind: 15 mph from Southeast

Location: Saint-Denis / Gillot

Current Time: Nov 24, 2014 at 7:14:00 PM

Latest Report: Nov 24, 2014 at 6:30 PM


Visibility: N/A

Pressure: 30.01 "Hg

Humidity: 70%

Dew point: 70 °F

Location of Saint-DenisLocation

Historic Weather in Saint-Denis — Graph

°F

Saint-Denis temperature yesterday

Maximum temperature yesterday: 88 °F (at 10:30 AM)
Minimum temperature yesterday: 73 °F (at 3:00 AM)
Average temperature yesterday: 81 °F

Past Weeks' High & Low Weather Summary

 TemperatureHumidityPressure
High90 °F (Nov 24, 12:30 PM)94% (Nov 16, 4:30 AM)30.09 "Hg (Nov 16, 4:30 AM)
Low68 °F (Nov 18, 6:00 AM)51% (Nov 14, 9:00 PM)29.89 "Hg (Nov 17, 2:18 PM)
Average78 °F71%29.99 "Hg
* Reported Nov 9 6:00 PM — Nov 24 6:00 PM, Saint-Denis, Weather by CustomWeather, © 2014

Note: Actual official high and low records may vary slightly from our data, if they occured in-between our weather recording intervals... More about our weather records

Advertising

Saint-Denis weather history for previous 24 hours

 ConditionsComfort  
Time TempWeatherWind HumidityBarometerVisibility
6:00 PM
Nov 24
81 °FPassing clouds.14 mph74%29.98 "HgN/A
5:30 PM81 °FPartly sunny.17 mph70%29.98 "HgN/A
5:00 PM81 °FPartly sunny.16 mph74%29.98 "HgN/A
4:30 PM81 °FPartly sunny.16 mph74%29.95 "HgN/A
4:00 PM81 °FPartly sunny.20 mph74%29.95 "HgN/A
3:30 PM82 °FPartly sunny.18 mph70%29.95 "HgN/A
3:00 PM84 °FPartly sunny.20 mph62%29.95 "HgN/A
2:30 PM84 °FScattered clouds.22 mph62%29.95 "HgN/A
2:00 PM86 °FScattered clouds.23 mph59%29.95 "HgN/A
1:30 PM86 °FPassing clouds.22 mph59%29.98 "HgN/A
1:00 PM86 °FPassing clouds.24 mph62%29.98 "HgN/A
12:30 PM90 °FPassing clouds.23 mph52%29.98 "HgN/A
12:00 PM88 °FPassing clouds.23 mph55%29.98 "HgN/A
11:30 AM88 °FPassing clouds.24 mph55%29.98 "HgN/A
11:00 AM88 °FPassing clouds.28 mph55%29.98 "HgN/A
10:30 AM88 °FPassing clouds.25 mph59%30.01 "HgN/A
10:00 AM86 °FPassing clouds.24 mph59%30.01 "HgN/A
9:30 AM86 °FPassing clouds.24 mph59%30.01 "HgN/A
9:00 AM86 °FPassing clouds.20 mph59%30.01 "HgN/A
8:30 AM84 °FPassing clouds.21 mph62%30.01 "HgN/A
8:00 AM82 °FPassing clouds.21 mph66%30.01 "HgN/A
7:30 AM82 °FPassing clouds.17 mph66%30.01 "HgN/A
6:30 AM81 °FScattered clouds.14 mph66%30.01 "HgN/A
6:00 AM77 °FScattered clouds.15 mph74%30.01 "HgN/A
5:30 AM75 °FScattered clouds.18 mph83%30.01 "HgN/A
5:00 AM75 °FScattered clouds.22 mph78%30.01 "HgN/A
4:30 AM77 °FScattered clouds.16 mph74%29.98 "HgN/A
3:30 AM77 °FClear.18 mph79%29.98 "HgN/A
3:00 AM77 °FWarm.16 mph74%29.98 "HgN/A
2:30 AM77 °FClear.18 mph74%29.98 "HgN/A
2:00 AM77 °FPassing clouds.17 mph79%29.98 "HgN/A
1:30 AM79 °FPassing clouds.15 mph74%30.01 "HgN/A
1:00 AM79 °FPassing clouds.16 mph74%30.01 "HgN/A
12:30 AM79 °FWarm.15 mph74%30.01 "HgN/A
12:00 AM79 °FPassing clouds.15 mph74%30.04 "HgN/A
11:30 PM
Nov 23
79 °FPassing clouds.15 mph74%30.04 "HgN/A
11:00 PM79 °FPassing clouds.14 mph74%30.04 "HgN/A
10:30 PM79 °FPassing clouds.16 mph74%30.04 "HgN/A
10:00 PM79 °FPassing clouds.15 mph79%30.04 "HgN/A
9:30 PM77 °FPassing clouds.14 mph83%30.04 "HgN/A
9:00 PM77 °FPassing clouds.15 mph89%30.04 "HgN/A
8:30 PM79 °FPassing clouds.15 mph79%30.04 "HgN/A
8:00 PM79 °FPassing clouds.15 mph79%30.01 "HgN/A
7:30 PM79 °FPassing clouds.15 mph79%30.01 "HgN/A
7:00 PM81 °FPassing clouds.15 mph74%30.01 "HgN/A
Weather by CustomWeather, © 2014

See weather overviewHow to use our weather pages